Torna al catalogo

ARIANE 5 R/B

AttivoHEO
NORAD 39618·ROCKET BODY·🇫🇷 France

Lanciato Mar 22, 2014 da Guiana Space Centre

Loading…

Prossimi Passaggi (prossime 24 ore)

TLE

AggiornatoSource: Space-Track

Epoca: Sep 14, 2026, 05:44 UTC

1 39618U 14011C   26257.23951755  .00004339  00000-0  10509-2 0  9999
2 39618   3.0453  82.8023 7040285 291.5458  10.5136  2.59053574110331

Traccia ARIANE 5 R/B in tempo reale con AllMySat

Download on the App Store